| time (UTC) | temp F | wind direction | speed MPH | gust MPH | rain 1hr in | rain 24hr in | rain mn in | humidity % | barometer mb |
| 20260505113022 | 58 | 172 | 1.0 | 6.0 | 0.00 | 0.00 | 0.00 | 85 | 1016.8 |
| 20260505111531 | 57 | 196 | 0.0 | 5.0 | 0.00 | 0.00 | 0.00 | 85 | 1016.7 |
| 20260505101516 | 58 | 168 | 0.0 | 4.0 | 0.00 | 0.00 | 0.00 | 83 | 1016.4 |
| 20260505100014 | 58 | 192 | 1.0 | 6.0 | 0.00 | 0.00 | 0.00 | 82 | 1016.2 |
| 20260505093014 | 59 | 149 | 1.0 | 7.0 | 0.00 | 0.00 | 0.00 | 81 | 1015.8 |
| 20260505091515 | 59 | 185 | 1.0 | 7.0 | 0.00 | 0.00 | 0.00 | 81 | 1015.7 |
| 20260505090014 | 59 | 167 | 2.0 | 6.0 | 0.00 | 0.00 | 0.00 | 80 | 1015.8 |
| 20260505083012 | 59 | 146 | 0.0 | 4.0 | 0.00 | 0.00 | 0.00 | 79 | 1015.8 |
| 20260505081518 | 59 | 200 | 0.0 | 5.0 | 0.00 | 0.00 | 0.00 | 79 | 1015.9 |
| 20260505080011 | 59 | 187 | 0.0 | 3.0 | 0.00 | 0.00 | 0.00 | 80 | 1015.8 |
| 20260505073011 | 60 | 188 | 1.0 | 7.0 | 0.00 | 0.00 | 0.00 | 76 | 1015.6 |
| 20260505071511 | 61 | 165 | 1.0 | 7.0 | 0.00 | 0.00 | 0.00 | 75 | 1015.6 |
| 20260505070013 | 61 | 180 | 1.0 | 5.0 | 0.00 | 0.00 | 0.00 | 75 | 1015.6 |
| 20260505063009 | 61 | 178 | 0.0 | 3.0 | 0.00 | 0.00 | 0.00 | 73 | 1015.6 |
| 20260505061509 | 62 | 254 | 0.0 | 5.0 | 0.00 | 0.00 | 0.00 | 72 | 1015.7 |
| 20260505060008 | 62 | 145 | 2.0 | 8.0 | 0.00 | 0.00 | 0.00 | 71 | 1015.9 |
| 20260505053008 | 62 | 262 | 1.0 | 6.0 | 0.00 | 0.00 | 0.00 | 70 | 1016.6 |
| 20260505051508 | 62 | 183 | 1.0 | 5.0 | 0.00 | 0.00 | 0.00 | 70 | 1016.3 |
| 20260505041506 | 63 | 169 | 1.0 | 4.0 | 0.00 | 0.00 | 0.00 | 67 | 1016.3 |
| 20260505040005 | 63 | 169 | 1.0 | 5.0 | 0.00 | 0.00 | 0.00 | 67 | 1016.6 |
| 20260505033004 | 63 | 163 | 1.0 | 4.0 | 0.00 | 0.00 | 0.00 | 67 | 1016.6 |
| 20260505031504 | 63 | 142 | 0.0 | 3.0 | 0.00 | 0.00 | 0.00 | 66 | 1016.5 |
| 20260505030012 | 63 | 198 | 0.0 | 4.0 | 0.00 | 0.00 | 0.00 | 66 | 1016.6 |
| 20260505023003 | 59 | 115 | 1.0 | 6.0 | 0.00 | 0.00 | 0.00 | 71 | 1016.4 |
| 20260505021502 | 60 | 188 | 0.0 | 0.0 | 0.00 | 0.00 | 0.00 | 73 | 1016.0 |
| 20260505020002 | 60 | 188 | 0.0 | 0.0 | 0.00 | 0.00 | 0.00 | 68 | 1016.0 |
| 20260505013002 | 62 | 188 | 0.0 | 0.0 | 0.00 | 0.00 | 0.00 | 66 | 1015.8 |
| 20260505011501 | 62 | 188 | 0.0 | 0.0 | 0.00 | 0.00 | 0.00 | 62 | 1015.6 |
| 20260505010001 | 64 | 188 | 0.0 | 0.0 | 0.00 | 0.00 | 0.00 | 60 | 1015.6 |
| 20260505003102 | 66 | 188 | 0.0 | 0.0 | 0.00 | 0.00 | 0.00 | 54 | 1015.1 |
| 20260505001600 | 68 | 184 | 0.0 | 2.0 | 0.00 | 0.00 | 0.00 | 53 | 1015.0 |
| 20260505001500 | 68 | 184 | 0.0 | 2.0 | 0.00 | 0.00 | 0.00 | 52 | 1015.0 |
| 20260505000114 | 70 | 184 | 0.0 | 1.0 | 0.00 | 0.00 | 0.00 | 51 | 1014.9 |
| 20260504234700 | 72 | 184 | 0.0 | 2.0 | 0.00 | 0.00 | 0.00 | 44 | 1014.7 |
| 20260504233109 | 73 | 148 | 0.0 | 3.0 | 0.00 | 0.00 | 0.00 | 43 | 1014.5 |
| 20260504231622 | 74 | 188 | 0.0 | 5.0 | 0.00 | 0.00 | 0.00 | 41 | 1014.5 |
| 20260504230056 | 74 | 169 | 0.0 | 4.0 | 0.00 | 0.00 | 0.00 | 41 | 1014.6 |
| 20260504223056 | 75 | 157 | 1.0 | 5.0 | 0.00 | 0.00 | 0.00 | 37 | 1014.6 |
| 20260504221641 | 77 | 154 | 1.0 | 9.0 | 0.00 | 0.00 | 0.00 | 35 | 1014.6 |
| 20260504220054 | 77 | 260 | 0.0 | 6.0 | 0.00 | 0.00 | 0.00 | 35 | 1014.4 |
| 20260504213100 | 77 | 201 | 1.0 | 8.0 | 0.00 | 0.00 | 0.00 | 34 | 1014.4 |
| 20260504211552 | 78 | 133 | 0.0 | 5.0 | 0.00 | 0.00 | 0.00 | 34 | 1014.5 |
| 20260504210052 | 78 | 130 | 2.0 | 7.0 | 0.00 | 0.00 | 0.00 | 31 | 1014.6 |
| 20260504203048 | 78 | 124 | 1.0 | 5.0 | 0.00 | 0.00 | 0.00 | 34 | 1014.9 |
| 20260504201545 | 78 | 113 | 1.0 | 6.0 | 0.00 | 0.00 | 0.00 | 32 | 1015.1 |
| 20260504200045 | 78 | 281 | 2.0 | 9.0 | 0.00 | 0.00 | 0.00 | 34 | 1015.3 |
| 20260504193047 | 78 | 202 | 2.0 | 8.0 | 0.00 | 0.00 | 0.00 | 35 | 1015.5 |
| 20260504191606 | 78 | 242 | 2.0 | 5.0 | 0.00 | 0.00 | 0.00 | 33 | 1015.6 |
| 20260504190040 | 78 | 184 | 1.0 | 4.0 | 0.00 | 0.00 | 0.00 | 35 | 1015.7 |
| 20260504183035 | 77 | 279 | 1.0 | 5.0 | 0.00 | 0.00 | 0.00 | 38 | 1016.3 |
| 20260504181534 | 77 | 189 | 1.0 | 8.0 | 0.00 | 0.00 | 0.00 | 36 | 1016.6 |
| 20260504180035 | 77 | 272 | 1.0 | 4.0 | 0.00 | 0.00 | 0.00 | 39 | 1016.6 |
| 20260504173027 | 76 | 250 | 2.0 | 9.0 | 0.00 | 0.00 | 0.00 | 37 | 1016.9 |
| 20260504171526 | 76 | 83 | 1.0 | 4.0 | 0.00 | 0.00 | 0.00 | 37 | 1017.1 |